Location: Unspecified
(40.7945°N, 0.0000°E)
Time: 05:37:00
(UTC+00:00)

TIGRISAT - Pass Details

Date: 28 August 2019
Orbit: 605 x 690 km, 97.7° (Epoch: 21 September)

Event Time Altitude Azimuth Distance (km) Brightness Sun altitude
Rises 21:51:26 0° 359° (N) 3,010 ? -31.4°
Reaches altitude 10° 21:54:02 10° 345° (NNW) 2,078 ? -31.7°
Maximum altitude 21:57:37 24° 293° (WNW) 1,353 ? -32.1°
Enters shadow 21:58:19 23° 278° (W) 1,383 ? -32.2°
